CAPE
11 10 9 13 7 5 0 3 0 0 0 0 189 415 138 895 1018 772 705 424 540 218
0 10 9 10 11 16 10 6 0 0 0 48 4 22 64 680 968 873 716 563 323 327
4 8 9 10 9 10 11 1 0 0 0 0 117 1 96 480 835 925 710 595 226 242
1 7 8 8 7 10 12 6 0 0 0 0 121 12 0 59 700 608 460 169 70 81
9 6 5 6 4 12 13 13 10 1 0 0 0 0 0 1 177 347 85 6 13 16
8 4 2 6 1 5 13 20 15 5 3 2 0 0 0 1 8 1 0 0 0 0
4 1 1 2 4 1 9 14 17 11 7 4 4 0 0 0 3 6 3 8 6 2
6 0 6 5 6 2 4 14 14 9 5 7 3 3 0 1 1 7 8 7 1 5
3 4 5 4 8 9 9 10 11 11 7 2 6 6 3 0 0 1 2 6 2 0
5 4 2 2 3 2 7 9 7 5 7 4 5 11 4 1 0 0 0 3 3 2
6 3 2 1 2 1 3 4 5 5 4 4 17 17 8 3 1 2 0 5 8 7
12 2 2 2 2 2 2 5 5 5 4 4 8 18 12 2 2 1 3 6 7 8
4 1 3 3 2 2 1 4 4 5 5 7 9 14 10 4 5 4 4 2 4 3
0 8 0 2 1 2 1 2 2 3 4 5 7 8 11 9 6 5 7 7 6 2
CIN
-0 -0 -0 -0 -0 -0 -0 -0 -0 -0 -0 -0 -25 -1 -7 -2 -30 -71 -76 -184 -151 -263
-0 -0 -0 -0 -0 -0 -0 -0 -0 -0 -0 -46 -20 -109 -31 -1 -15 -43 -91 -135 -245 -237
-0 -0 -0 -0 -0 -0 -0 -0 -0 -0 -0 -0 -69 -32 -119 -0 -9 -6 -63 -90 -244 -217
-0 -0 -0 -0 -0 -0 -0 -0 -0 -0 -0 -0 -88 -35 -0 -0 -3 -17 -72 -211 -329 -300
-0 -0 -0 -0 -0 -0 -0 -0 -0 -0 -0 -0 -0 -0 -0 -0 -0 -34 -170 -281 -298 -287
-0 -0 -0 -0 -0 -0 -0 -0 -0 -0 -0 -0 -0 -0 -0 -0 -0 -0 -0 -0 -0 -0
-0 -0 -0 -0 -0 -0 -0 -0 -0 -0 -0 -0 -0 -0 -0 -0 -0 -0 -0 -0 -0 -0
-0 -0 -0 -0 -0 -0 -0 -0 -0 -0 -0 -0 -0 -0 -0 -0 -0 -0 -0 -0 -0 -0
-0 -0 -0 -0 -0 -0 -0 -0 -0 -0 -0 -0 -0 -0 -0 -0 -0 -0 -0 -0 -0 -0
-0 -0 -0 -0 -0 -0 -0 -0 -0 -0 -0 -0 -0 -0 -0 -0 -0 -0 -0 -0 -0 -0
-0 -0 -0 -0 -0 -0 -0 -0 -0 -0 -0 -0 -0 -0 -0 -0 -0 -0 -0 -0 -0 -0
-0 -0 -0 -0 -0 -0 -0 -0 -0 -0 -0 -0 -0 -0 -0 -0 -0 -0 -0 -0 -0 -0
-0 -0 -0 -0 -0 -0 -0 -0 -0 -0 -0 -0 -0 -0 -0 -0 -0 -0 -0 -0 -0 -0
-0 -0 -0 -0 -0 -0 -0 -0 -0 -0 -0 -0 -0 -0 -0 -0 -0 -0 -0 -0 -0 -0
Wind_Speed
17 11 12 13 14 12 12 12 9 4 4 7 11 14 24 17 16 18 17 17 15 9
18 17 15 18 16 12 13 10 10 10 6 5 10 12 19 23 19 16 18 16 15 11
17 18 18 16 18 18 15 9 10 7 4 3 9 12 14 20 16 14 13 11 13 11
19 19 18 17 18 19 17 11 10 9 9 7 4 13 13 21 20 15 11 9 11 11
17 18 19 18 19 20 17 12 11 9 12 14 13 12 16 27 22 14 13 9 9 8
18 19 20 21 17 18 16 14 11 14 17 15 15 17 17 18 25 9 10 12 11 9
17 16 15 18 15 14 15 12 15 17 17 19 19 15 18 20 19 12 13 10 9 7
16 13 14 16 15 16 15 15 16 16 18 18 21 15 18 17 10 17 10 7 11 9
17 16 16 16 16 17 17 18 18 18 17 19 15 28 28 19 13 8 12 11 13 11
17 18 18 17 19 19 18 17 19 17 17 19 22 35 33 23 11 9 12 12 13 10
16 16 17 17 17 18 16 19 18 17 17 17 19 36 34 24 9 6 8 14 17 16
13 15 15 16 14 13 13 12 12 14 17 19 22 36 35 21 14 17 19 17 15 17
14 13 14 14 14 12 11 12 10 13 19 28 20 32 31 22 11 12 10 13 17 21
13 10 12 10 10 10 9 10 13 15 15 18 21 21 32 32 15 11 9 8 9 10
Wind_Direction
329 323 321 320 313 305 300 296 303 326 1 294 249 242 251 229 202 203 201 194 193 189
340 334 334 328 321 321 304 311 301 287 246 259 236 230 244 221 207 202 202 200 190 191
340 337 340 339 335 330 320 313 290 312 292 262 228 210 254 201 211 207 205 202 186 187
346 349 346 342 333 334 325 332 333 26 11 357 169 86 4 283 200 202 190 193 168 181
347 355 355 343 341 338 335 343 11 23 35 32 43 63 31 356 245 191 161 163 154 175
357 360 357 347 344 341 340 352 29 41 41 40 44 49 38 28 335 116 97 98 105 92
1 357 357 349 345 336 347 354 32 40 44 42 43 36 50 42 348 327 77 80 76 70
360 0 1 357 349 354 353 10 24 37 40 41 43 18 50 64 297 360 15 61 73 61
360 5 8 5 357 4 4 9 21 27 30 39 45 38 46 41 31 357 334 20 40 36
3 5 6 9 6 12 10 12 21 19 18 34 38 33 29 36 61 350 19 331 45 47
6 7 9 13 9 11 8 14 15 11 17 24 34 37 30 31 40 5 24 13 26 29
358 7 10 11 10 17 14 13 18 15 21 26 30 31 27 20 17 17 16 12 19 22
356 17 13 14 11 1 11 16 18 21 26 25 30 30 31 31 19 21 11 12 17 10
1 4 14 16 10 10 17 15 26 29 29 31 29 25 28 30 26 17 16 16 5 4